Powrót do katalogu

STARLINK-31414

AktywnyŁącznośćVLEO
NORAD 59418·PAYLOAD·🇺🇸 United States

Wystrzelony Apr 5, 2024 z Cape Canaveral Space Force Station

Loading…

Następne Przeloty (najbliższe 24 godziny)

TLE

ŚwieżeSource: CelesTrak SupGP

Epoka: Sep 15, 2026, 02:18 UTC

1 59418C 24064W   26258.09631944 -.00085156  00000+0 -30821-2 0  2582
2 59418  43.0012  66.5713 0001404 265.6566  44.8468 15.27645063    16

Śledź STARLINK-31414 w czasie rzeczywistym z AllMySat

Download on the App Store